Time,TemperatureF,DewpointF,PressureIn,WindDirection,WindDirectionDegrees,WindSpeedMPH,WindSpeedGustMPH,Humidity,HourlyPrecipIn,Conditions,Clouds,dailyrainin,SolarRadiationWatts/m^2,SoftwareType,DateUTC
2013-01-20 00:01:00,32.7,32.0,29.91,South,189,0.0,1.0,97,-99.99,,,-99.99,0.0,meteohub,2013-01-20 05:01:00,
2013-01-20 00:05:00,32.7,32.0,29.91,South,189,0.0,1.0,97,-99.99,,,-99.99,0.0,meteohub,2013-01-20 05:05:00,
2013-01-20 00:10:00,32.7,32.0,29.90,South,189,0.0,0.0,97,-99.99,,,-99.99,0.0,meteohub,2013-01-20 05:10:00,
2013-01-20 00:15:00,32.9,32.2,29.90,South,189,0.0,0.0,97,-99.99,,,-99.99,0.0,meteohub,2013-01-20 05:15:00,
2013-01-20 00:20:00,32.7,32.0,29.90,South,189,0.0,0.0,97,-99.99,,,-99.99,0.0,meteohub,2013-01-20 05:20:00,
2013-01-20 00:25:00,32.7,32.0,29.89,South,189,0.0,0.0,97,-99.99,,,-99.99,0.0,meteohub,2013-01-20 05:25:00,
2013-01-20 00:30:00,32.7,32.0,29.89,South,189,0.0,0.0,97,-99.99,,,-99.99,0.0,meteohub,2013-01-20 05:30:00,
2013-01-20 00:36:00,32.7,32.0,29.88,South,189,0.0,0.0,97,-99.99,,,-99.99,0.0,meteohub,2013-01-20 05:36:00,
2013-01-20 00:41:00,32.7,32.0,29.88,South,189,0.0,0.0,97,-99.99,,,-99.99,0.0,meteohub,2013-01-20 05:41:00,
2013-01-20 00:46:00,32.7,32.0,29.88,South,189,0.0,0.0,97,-99.99,,,-99.99,0.0,meteohub,2013-01-20 05:46:00,
2013-01-20 00:51:00,32.9,32.2,29.88,South,189,0.0,0.0,97,-99.99,,,-99.99,0.0,meteohub,2013-01-20 05:51:00,
2013-01-20 00:56:00,32.9,32.2,29.88,South,189,0.0,0.0,97,-99.99,,,-99.99,0.0,meteohub,2013-01-20 05:56:00,
2013-01-20 01:01:00,33.1,32.4,29.88,South,189,0.0,0.0,97,-99.99,,,-99.99,0.0,meteohub,2013-01-20 06:01:00,
2013-01-20 01:06:00,33.1,32.4,29.88,South,189,0.0,0.0,97,-99.99,,,-99.99,0.0,meteohub,2013-01-20 06:06:00,
2013-01-20 01:11:00,33.3,32.5,29.87,South,189,0.0,0.0,97,-99.99,,,-99.99,0.0,meteohub,2013-01-20 06:11:00,
2013-01-20 01:16:00,33.3,32.5,29.88,South,189,0.0,0.0,97,-99.99,,,-99.99,0.0,meteohub,2013-01-20 06:16:00,
2013-01-20 01:21:00,33.3,32.5,29.88,South,189,0.0,0.0,97,-99.99,,,-99.99,0.0,meteohub,2013-01-20 06:21:00,
2013-01-20 01:26:00,33.4,32.7,29.88,South,189,0.0,0.0,97,-99.99,,,-99.99,0.0,meteohub,2013-01-20 06:26:00,
2013-01-20 01:31:00,33.4,32.7,29.87,South,189,0.0,0.0,97,-99.99,,,-99.99,0.0,meteohub,2013-01-20 06:31:00,
2013-01-20 01:36:00,33.4,32.7,29.87,South,189,0.0,0.0,97,-99.99,,,-99.99,0.0,meteohub,2013-01-20 06:36:00,
2013-01-20 01:41:00,33.4,32.7,29.87,South,189,0.0,0.0,97,-99.99,,,-99.99,0.0,meteohub,2013-01-20 06:41:00,
2013-01-20 01:46:00,33.6,32.9,29.87,South,189,0.0,0.0,97,-99.99,,,-99.99,0.0,meteohub,2013-01-20 06:46:00,
2013-01-20 01:52:00,33.6,32.9,29.86,South,189,0.0,0.0,97,-99.99,,,-99.99,0.0,meteohub,2013-01-20 06:52:00,
2013-01-20 01:57:00,33.6,32.9,29.87,South,189,0.0,0.0,97,-99.99,,,-99.99,0.0,meteohub,2013-01-20 06:57:00,
2013-01-20 02:02:00,33.8,33.1,29.87,South,189,0.0,0.0,97,-99.99,,,-99.99,0.0,meteohub,2013-01-20 07:02:00,
2013-01-20 02:07:00,34.0,33.3,29.86,South,189,0.0,0.0,97,-99.99,,,-99.99,0.0,meteohub,2013-01-20 07:07:00,
2013-01-20 02:12:00,34.0,33.3,29.86,South,189,0.0,0.0,97,-99.99,,,-99.99,0.0,meteohub,2013-01-20 07:12:00,
2013-01-20 02:17:00,34.2,33.4,29.86,South,189,0.0,0.0,97,-99.99,,,-99.99,0.0,meteohub,2013-01-20 07:17:00,
2013-01-20 02:22:00,34.2,33.4,29.85,South,189,0.0,0.0,97,-99.99,,,-99.99,0.0,meteohub,2013-01-20 07:22:00,
2013-01-20 02:27:00,34.3,33.6,29.85,South,189,0.0,0.0,97,-99.99,,,-99.99,0.0,meteohub,2013-01-20 07:27:00,
2013-01-20 02:32:00,34.3,33.6,29.85,South,189,0.0,1.0,97,-99.99,,,-99.99,0.0,meteohub,2013-01-20 07:32:00,
2013-01-20 02:37:00,34.3,33.6,29.84,South,189,0.0,1.0,97,-99.99,,,-99.99,0.0,meteohub,2013-01-20 07:37:00,
2013-01-20 02:42:00,34.3,33.6,29.84,South,189,1.0,1.0,97,-99.99,,,-99.99,0.0,meteohub,2013-01-20 07:42:00,
2013-01-20 02:47:00,35.1,34.5,29.83,South,189,1.0,1.0,98,-99.99,,,-99.99,0.0,meteohub,2013-01-20 07:47:00,
2013-01-20 02:52:00,35.4,34.9,29.83,South,189,0.0,1.0,98,-99.99,,,-99.99,0.0,meteohub,2013-01-20 07:52:00,
2013-01-20 02:57:00,35.8,35.2,29.83,ESE,103,0.0,1.0,98,-99.99,,,-99.99,0.0,meteohub,2013-01-20 07:57:00,
2013-01-20 03:02:00,36.9,36.3,29.82,East,98,0.0,2.0,98,-99.99,,,-99.99,0.0,meteohub,2013-01-20 08:02:00,
2013-01-20 03:07:00,37.9,37.8,29.81,ESE,102,1.0,5.0,99,-99.99,,,-99.99,0.0,meteohub,2013-01-20 08:07:00,
2013-01-20 03:12:00,38.5,38.3,29.81,East,92,2.0,5.0,99,-99.99,,,-99.99,0.0,meteohub,2013-01-20 08:12:00,
2013-01-20 03:17:00,39.0,38.8,29.80,ENE,69,2.0,5.0,99,-99.99,,,-99.99,0.0,meteohub,2013-01-20 08:17:00,
2013-01-20 03:22:00,39.4,38.8,29.79,ENE,65,0.0,3.0,98,-99.99,,,-99.99,0.0,meteohub,2013-01-20 08:22:00,
2013-01-20 03:27:00,39.6,39.0,29.79,ESE,108,0.0,3.0,98,-99.99,,,-99.99,0.0,meteohub,2013-01-20 08:27:00,
2013-01-20 03:32:00,39.6,38.8,29.78,ESE,108,0.0,3.0,97,-99.99,,,-99.99,0.0,meteohub,2013-01-20 08:32:00,
2013-01-20 03:37:00,39.6,38.8,29.78,ESE,109,0.0,2.0,97,-99.99,,,-99.99,0.0,meteohub,2013-01-20 08:37:00,
2013-01-20 03:42:00,39.6,38.8,29.78,ESE,109,0.0,1.0,97,-99.99,,,-99.99,0.0,meteohub,2013-01-20 08:42:00,
2013-01-20 03:47:00,39.4,38.3,29.78,ESE,109,0.0,1.0,96,-99.99,,,-99.99,0.0,meteohub,2013-01-20 08:47:00,
2013-01-20 03:52:00,39.0,37.9,29.77,ESE,109,0.0,0.0,96,-99.99,,,-99.99,0.0,meteohub,2013-01-20 08:52:00,
2013-01-20 03:57:00,39.0,37.9,29.76,ESE,109,0.0,0.0,96,-99.99,,,-99.99,0.0,meteohub,2013-01-20 08:57:00,
2013-01-20 04:02:00,39.0,37.9,29.75,ESE,109,0.0,1.0,96,-99.99,,,-99.99,0.0,meteohub,2013-01-20 09:02:00,
2013-01-20 04:07:00,39.2,38.5,29.75,ESE,109,0.0,1.0,97,-99.99,,,-99.99,0.0,meteohub,2013-01-20 09:07:00,
2013-01-20 04:12:00,39.2,38.1,29.75,ESE,109,0.0,1.0,96,-99.99,,,-99.99,0.0,meteohub,2013-01-20 09:12:00,
2013-01-20 04:17:00,39.4,38.7,29.75,ESE,109,0.0,1.0,97,-99.99,,,-99.99,0.0,meteohub,2013-01-20 09:17:00,
2013-01-20 04:22:00,39.6,38.8,29.75,ESE,109,0.0,1.0,97,-99.99,,,-99.99,0.0,meteohub,2013-01-20 09:22:00,
2013-01-20 04:27:00,39.6,38.8,29.75,ESE,109,0.0,2.0,97,-99.99,,,-99.99,0.0,meteohub,2013-01-20 09:27:00,
2013-01-20 04:32:00,39.6,38.5,29.74,East,96,0.0,2.0,96,-99.99,,,-99.99,0.0,meteohub,2013-01-20 09:32:00,
2013-01-20 04:37:00,39.6,38.5,29.74,East,97,0.0,2.0,96,-99.99,,,-99.99,0.0,meteohub,2013-01-20 09:37:00,
2013-01-20 04:42:00,39.6,38.8,29.73,ESE,105,1.0,2.0,97,-99.99,,,-99.99,0.0,meteohub,2013-01-20 09:42:00,
2013-01-20 04:47:00,39.4,38.3,29.73,East,89,2.0,3.0,96,-99.99,,,-99.99,0.0,meteohub,2013-01-20 09:47:00,
2013-01-20 04:53:00,39.6,38.8,29.73,East,92,2.0,5.0,97,-99.99,,,-99.99,0.0,meteohub,2013-01-20 09:53:00,
2013-01-20 04:58:00,39.7,39.0,29.72,East,83,1.0,5.0,97,-99.99,,,-99.99,0.0,meteohub,2013-01-20 09:58:00,
2013-01-20 05:03:00,39.9,39.2,29.73,ESE,103,0.0,5.0,97,-99.99,,,-99.99,0.0,meteohub,2013-01-20 10:03:00,
2013-01-20 05:08:00,40.1,39.4,29.72,ESE,113,0.0,3.0,97,-99.99,,,-99.99,0.0,meteohub,2013-01-20 10:08:00,
2013-01-20 05:13:00,40.1,39.0,29.72,ESE,111,2.0,3.0,96,-99.99,,,-99.99,0.0,meteohub,2013-01-20 10:13:00,
2013-01-20 05:18:00,40.1,39.0,29.72,ESE,110,0.0,3.0,96,-99.99,,,-99.99,0.0,meteohub,2013-01-20 10:18:00,
2013-01-20 05:23:00,39.9,38.8,29.72,ESE,110,0.0,3.0,96,-99.99,,,-99.99,0.0,meteohub,2013-01-20 10:23:00,
2013-01-20 05:28:00,39.9,38.8,29.72,East,94,1.0,3.0,96,-99.99,,,-99.99,0.0,meteohub,2013-01-20 10:28:00,
2013-01-20 05:33:00,40.3,39.2,29.71,ESE,108,0.0,3.0,96,-99.99,,,-99.99,0.0,meteohub,2013-01-20 10:33:00,
2013-01-20 05:38:00,40.3,39.2,29.71,East,84,1.0,4.0,96,-99.99,,,-99.99,0.0,meteohub,2013-01-20 10:38:00,
2013-01-20 05:43:00,40.5,39.2,29.71,ESE,121,0.0,4.0,95,-99.99,,,-99.99,0.0,meteohub,2013-01-20 10:43:00,
2013-01-20 05:48:00,40.6,39.4,29.71,East,101,1.0,5.0,95,-99.99,,,-99.99,0.0,meteohub,2013-01-20 10:48:00,
2013-01-20 05:53:00,40.6,39.4,29.70,East,81,2.0,5.0,95,-99.99,,,-99.99,0.0,meteohub,2013-01-20 10:53:00,
2013-01-20 05:58:00,40.6,39.0,29.69,ESE,109,2.0,5.0,94,-99.99,,,-99.99,0.0,meteohub,2013-01-20 10:58:00,
2013-01-20 06:03:00,40.6,39.0,29.68,ESE,104,1.0,5.0,94,-99.99,,,-99.99,0.0,meteohub,2013-01-20 11:03:00,
2013-01-20 06:08:00,40.5,38.8,29.68,East,99,1.0,5.0,94,-99.99,,,-99.99,0.0,meteohub,2013-01-20 11:08:00,
2013-01-20 06:13:00,40.3,38.7,29.68,East,90,1.0,3.0,94,-99.99,,,-99.99,0.0,meteohub,2013-01-20 11:13:00,
2013-01-20 06:18:00,39.9,38.3,29.67,East,90,2.0,3.0,94,-99.99,,,-99.99,0.0,meteohub,2013-01-20 11:18:00,
2013-01-20 06:23:00,39.7,38.5,29.67,East,94,2.0,3.0,95,-99.99,,,-99.99,0.0,meteohub,2013-01-20 11:23:00,
2013-01-20 06:28:00,39.9,38.7,29.67,East,100,0.0,3.0,95,-99.99,,,-99.99,0.0,meteohub,2013-01-20 11:28:00,
2013-01-20 06:33:00,39.9,38.7,29.66,East,91,2.0,6.0,95,-99.99,,,-99.99,0.0,meteohub,2013-01-20 11:33:00,
2013-01-20 06:38:00,39.9,38.7,29.66,ESE,105,0.0,6.0,95,-99.99,,,-99.99,0.0,meteohub,2013-01-20 11:38:00,
2013-01-20 06:43:00,39.9,38.7,29.66,East,94,1.0,6.0,95,-99.99,,,-99.99,0.0,meteohub,2013-01-20 11:43:00,
2013-01-20 06:48:00,39.7,38.5,29.65,East,99,1.0,3.0,95,-99.99,,,-99.99,0.0,meteohub,2013-01-20 11:48:00,
2013-01-20 06:53:00,39.9,38.7,29.65,East,97,0.0,3.0,95,-99.99,,,-99.99,0.0,meteohub,2013-01-20 11:53:00,
2013-01-20 06:58:00,39.7,38.5,29.65,ESE,114,0.0,5.0,95,-99.99,,,-99.99,0.0,meteohub,2013-01-20 11:58:00,
2013-01-20 07:04:00,39.7,38.5,29.64,East,86,1.0,5.0,95,-99.99,,,-99.99,0.0,meteohub,2013-01-20 12:04:00,
2013-01-20 07:09:00,39.7,38.5,29.63,ESE,110,3.0,5.0,95,-99.99,,,-99.99,9.0,meteohub,2013-01-20 12:09:00,
2013-01-20 07:14:00,40.1,39.0,29.62,ENE,66,4.0,5.0,96,-99.99,,,-99.99,11.0,meteohub,2013-01-20 12:14:00,
2013-01-20 07:19:00,40.5,39.4,29.62,ESE,121,3.0,5.0,96,-99.99,,,-99.99,14.0,meteohub,2013-01-20 12:19:00,
2013-01-20 07:24:00,40.8,39.7,29.62,East,96,2.0,6.0,96,-99.99,,,-99.99,21.0,meteohub,2013-01-20 12:24:00,
2013-01-20 07:29:00,41.0,39.9,29.61,East,98,1.0,6.0,96,-99.99,,,-99.99,19.0,meteohub,2013-01-20 12:29:00,
2013-01-20 07:34:00,41.2,40.1,29.60,East,96,3.0,6.0,96,-99.99,,,-99.99,21.0,meteohub,2013-01-20 12:34:00,
2013-01-20 07:39:00,41.2,40.1,29.60,East,82,1.0,6.0,96,-99.99,,,-99.99,25.0,meteohub,2013-01-20 12:39:00,
2013-01-20 07:44:00,41.4,40.3,29.60,SSE,150,2.0,7.0,96,-99.99,,,-99.99,32.0,meteohub,2013-01-20 12:44:00,
2013-01-20 07:49:00,41.7,40.6,29.60,South,169,0.0,7.0,96,-99.99,,,-99.99,39.0,meteohub,2013-01-20 12:49:00,
2013-01-20 07:54:00,42.3,41.0,29.60,East,87,7.0,7.0,95,-99.99,,,-99.99,39.0,meteohub,2013-01-20 12:54:00,
2013-01-20 07:59:00,42.6,41.0,29.59,SSE,164,8.0,8.0,94,-99.99,,,-99.99,42.0,meteohub,2013-01-20 12:59:00,
2013-01-20 08:04:00,43.0,41.2,29.58,SE,142,6.0,8.0,93,-99.99,,,-99.99,40.0,meteohub,2013-01-20 13:04:00,
2013-01-20 08:09:00,43.2,41.4,29.58,East,95,2.0,9.0,93,-99.99,,,-99.99,46.0,meteohub,2013-01-20 13:09:00,
2013-01-20 08:14:00,43.3,41.2,29.57,East,101,6.0,9.0,92,-99.99,,,-99.99,46.0,meteohub,2013-01-20 13:14:00,
2013-01-20 08:19:00,43.3,41.2,29.57,SE,135,3.0,9.0,92,-99.99,,,-99.99,46.0,meteohub,2013-01-20 13:19:00,
2013-01-20 08:24:00,43.3,40.8,29.57,ENE,61,3.0,8.0,91,-99.99,,,-99.99,40.0,meteohub,2013-01-20 13:24:00,
2013-01-20 08:29:00,43.5,41.0,29.56,ESE,122,4.0,10.0,91,-99.99,,,-99.99,67.0,meteohub,2013-01-20 13:29:00,
2013-01-20 08:35:00,43.5,41.0,29.56,ESE,114,2.0,10.0,91,-99.99,,,-99.99,100.0,meteohub,2013-01-20 13:35:00,
2013-01-20 08:40:00,43.9,41.4,29.56,SE,128,3.0,10.0,91,-99.99,,,-99.99,95.0,meteohub,2013-01-20 13:40:00,
2013-01-20 08:45:00,44.1,41.4,29.55,South,180,2.0,9.0,90,-99.99,,,-99.99,70.0,meteohub,2013-01-20 13:45:00,
2013-01-20 08:50:00,44.2,41.5,29.55,SE,140,5.0,9.0,90,-99.99,,,-99.99,100.0,meteohub,2013-01-20 13:50:00,
2013-01-20 08:55:00,44.4,41.4,29.55,ENE,75,2.0,9.0,89,-99.99,,,-99.99,70.0,meteohub,2013-01-20 13:55:00,
2013-01-20 09:00:00,44.4,41.2,29.55,ESE,109,0.0,9.0,88,-99.99,,,-99.99,197.0,meteohub,2013-01-20 14:00:00,
2013-01-20 09:05:00,44.4,41.2,29.54,South,179,2.0,13.0,88,-99.99,,,-99.99,213.0,meteohub,2013-01-20 14:05:00,
2013-01-20 09:10:00,44.4,41.2,29.54,East,86,5.0,13.0,88,-99.99,,,-99.99,165.0,meteohub,2013-01-20 14:10:00,
2013-01-20 09:15:00,44.4,41.2,29.53,ENE,65,2.0,13.0,88,-99.99,,,-99.99,158.0,meteohub,2013-01-20 14:15:00,
2013-01-20 09:20:00,45.0,41.4,29.53,NE,39,2.0,11.0,87,-99.99,,,-99.99,206.0,meteohub,2013-01-20 14:20:00,
2013-01-20 09:25:00,45.0,41.4,29.53,ESE,121,1.0,10.0,87,-99.99,,,-99.99,202.0,meteohub,2013-01-20 14:25:00,
2013-01-20 09:30:00,45.0,41.0,29.53,ENE,65,5.0,10.0,86,-99.99,,,-99.99,206.0,meteohub,2013-01-20 14:30:00,
2013-01-20 09:35:00,44.8,40.8,29.53,East,80,8.0,10.0,86,-99.99,,,-99.99,195.0,meteohub,2013-01-20 14:35:00,
2013-01-20 09:40:00,44.4,40.8,29.53,ENE,69,5.0,14.0,87,-99.99,,,-99.99,213.0,meteohub,2013-01-20 14:40:00,
2013-01-20 09:45:00,44.8,41.2,29.53,ESE,117,2.0,14.0,87,-99.99,,,-99.99,188.0,meteohub,2013-01-20 14:45:00,
2013-01-20 09:50:00,45.0,41.0,29.52,ENE,78,2.0,14.0,86,-99.99,,,-99.99,160.0,meteohub,2013-01-20 14:50:00,
2013-01-20 09:55:00,45.0,41.0,29.52,East,79,5.0,12.0,86,-99.99,,,-99.99,213.0,meteohub,2013-01-20 14:55:00,
2013-01-20 10:00:00,45.0,41.0,29.52,ENE,60,5.0,13.0,86,-99.99,,,-99.99,176.0,meteohub,2013-01-20 15:00:00,
2013-01-20 10:05:00,45.1,40.8,29.52,ESE,119,5.0,13.0,85,-99.99,,,-99.99,172.0,meteohub,2013-01-20 15:05:00,
2013-01-20 10:10:00,45.3,41.0,29.51,SSW,210,3.0,15.0,85,-99.99,,,-99.99,292.0,meteohub,2013-01-20 15:10:00,
2013-01-20 10:15:00,45.5,41.0,29.51,ESE,112,5.0,16.0,84,-99.99,,,-99.99,220.0,meteohub,2013-01-20 15:15:00,
2013-01-20 10:20:00,45.3,40.8,29.50,East,90,7.0,16.0,84,-99.99,,,-99.99,197.0,meteohub,2013-01-20 15:20:00,
2013-01-20 10:25:00,45.3,40.8,29.50,ESE,119,7.0,17.0,84,-99.99,,,-99.99,158.0,meteohub,2013-01-20 15:25:00,
2013-01-20 10:30:00,45.1,40.6,29.49,SE,131,2.0,17.0,84,-99.99,,,-99.99,251.0,meteohub,2013-01-20 15:30:00,
2013-01-20 10:35:00,45.3,40.8,29.49,SE,137,4.0,16.0,84,-99.99,,,-99.99,167.0,meteohub,2013-01-20 15:35:00,
2013-01-20 10:40:00,45.1,40.3,29.49,NE,48,6.0,16.0,83,-99.99,,,-99.99,162.0,meteohub,2013-01-20 15:40:00,
2013-01-20 10:45:00,45.3,40.5,29.49,ESE,108,4.0,15.0,83,-99.99,,,-99.99,265.0,meteohub,2013-01-20 15:45:00,
2013-01-20 10:50:00,45.7,40.5,29.48,ENE,68,4.0,15.0,82,-99.99,,,-99.99,218.0,meteohub,2013-01-20 15:50:00,
2013-01-20 10:55:00,45.9,40.6,29.48,East,80,14.0,15.0,82,-99.99,,,-99.99,200.0,meteohub,2013-01-20 15:55:00,
2013-01-20 11:00:00,45.9,40.3,29.47,NE,48,8.0,14.0,81,-99.99,,,-99.99,225.0,meteohub,2013-01-20 16:00:00,
2013-01-20 11:05:00,46.0,40.5,29.47,SE,136,10.0,14.0,81,-99.99,,,-99.99,169.0,meteohub,2013-01-20 16:05:00,
2013-01-20 11:10:00,46.2,40.6,29.47,SE,140,4.0,14.0,81,-99.99,,,-99.99,97.0,meteohub,2013-01-20 16:10:00,
2013-01-20 11:15:00,46.2,40.5,29.46,SSW,194,7.0,15.0,80,-99.99,,,-99.99,113.0,meteohub,2013-01-20 16:15:00,
2013-01-20 11:20:00,46.4,40.6,29.46,ENE,69,0.0,17.0,80,-99.99,,,-99.99,181.0,meteohub,2013-01-20 16:20:00,
2013-01-20 11:25:00,46.6,40.5,29.46,ESE,110,0.0,17.0,79,-99.99,,,-99.99,162.0,meteohub,2013-01-20 16:25:00,
2013-01-20 11:30:00,46.8,40.6,29.45,WNW,282,2.0,17.0,79,-99.99,,,-99.99,139.0,meteohub,2013-01-20 16:30:00,
2013-01-20 11:35:00,46.8,40.3,29.45,SSW,211,7.0,14.0,78,-99.99,,,-99.99,144.0,meteohub,2013-01-20 16:35:00,
2013-01-20 11:40:00,46.8,40.3,29.45,SE,128,5.0,14.0,78,-99.99,,,-99.99,227.0,meteohub,2013-01-20 16:40:00,
2013-01-20 11:45:00,46.8,39.9,29.44,SSE,166,6.0,13.0,77,-99.99,,,-99.99,132.0,meteohub,2013-01-20 16:45:00,
2013-01-20 11:50:00,46.9,39.7,29.44,WSW,238,8.0,12.0,76,-99.99,,,-99.99,120.0,meteohub,2013-01-20 16:50:00,
2013-01-20 11:55:00,46.9,39.7,29.44,SE,140,2.0,11.0,76,-99.99,,,-99.99,218.0,meteohub,2013-01-20 16:55:00,
2013-01-20 12:00:00,46.9,39.4,29.44,SE,126,6.0,11.0,75,-99.99,,,-99.99,185.0,meteohub,2013-01-20 17:00:00,
2013-01-20 12:05:00,47.1,39.6,29.43,SSE,161,5.0,11.0,75,-99.99,,,-99.99,202.0,meteohub,2013-01-20 17:05:00,
2013-01-20 12:10:00,47.1,39.2,29.44,SSE,160,3.0,9.0,74,-99.99,,,-99.99,221.0,meteohub,2013-01-20 17:10:00,
2013-01-20 12:15:00,47.1,39.2,29.43,WSW,251,1.0,11.0,74,-99.99,,,-99.99,218.0,meteohub,2013-01-20 17:15:00,
2013-01-20 12:20:00,46.9,38.7,29.43,East,79,2.0,11.0,73,-99.99,,,-99.99,200.0,meteohub,2013-01-20 17:20:00,
2013-01-20 12:25:00,46.8,38.8,29.43,ENE,71,3.0,13.0,74,-99.99,,,-99.99,200.0,meteohub,2013-01-20 17:25:00,
2013-01-20 12:30:00,46.8,38.5,29.43,ESE,115,3.0,13.0,73,-99.99,,,-99.99,206.0,meteohub,2013-01-20 17:30:00,
2013-01-20 12:35:00,46.8,38.5,29.43,NE,49,2.0,13.0,73,-99.99,,,-99.99,197.0,meteohub,2013-01-20 17:35:00,
2013-01-20 12:40:00,46.8,38.8,29.43,WSW,237,4.0,13.0,74,-99.99,,,-99.99,204.0,meteohub,2013-01-20 17:40:00,
2013-01-20 12:45:00,46.8,38.5,29.43,SW,220,3.0,10.0,73,-99.99,,,-99.99,186.0,meteohub,2013-01-20 17:45:00,
2013-01-20 12:50:00,46.6,38.1,29.43,NE,55,3.0,15.0,72,-99.99,,,-99.99,179.0,meteohub,2013-01-20 17:50:00,
2013-01-20 12:55:00,46.6,38.1,29.43,SSW,196,2.0,15.0,72,-99.99,,,-99.99,174.0,meteohub,2013-01-20 17:55:00,
2013-01-20 13:00:00,46.4,37.6,29.43,SSE,157,6.0,15.0,71,-99.99,,,-99.99,169.0,meteohub,2013-01-20 18:00:00,
2013-01-20 13:05:00,46.4,37.6,29.43,SSE,165,4.0,12.0,71,-99.99,,,-99.99,188.0,meteohub,2013-01-20 18:05:00,
2013-01-20 13:10:00,46.2,37.8,29.43,SW,219,4.0,15.0,72,-99.99,,,-99.99,160.0,meteohub,2013-01-20 18:10:00,
2013-01-20 13:15:00,46.2,37.8,29.43,SE,131,2.0,15.0,72,-99.99,,,-99.99,174.0,meteohub,2013-01-20 18:15:00,
2013-01-20 13:20:00,46.2,37.8,29.43,South,169,2.0,11.0,72,-99.99,,,-99.99,155.0,meteohub,2013-01-20 18:20:00,
2013-01-20 13:25:00,46.2,38.1,29.43,SE,126,2.0,12.0,73,-99.99,,,-99.99,146.0,meteohub,2013-01-20 18:25:00,
2013-01-20 13:30:00,46.2,38.1,29.43,SSW,195,5.0,12.0,73,-99.99,,,-99.99,151.0,meteohub,2013-01-20 18:30:00,
2013-01-20 13:35:00,46.0,37.9,29.44,West,269,8.0,12.0,73,-99.99,,,-99.99,146.0,meteohub,2013-01-20 18:35:00,
2013-01-20 13:40:00,46.2,37.8,29.43,West,277,5.0,11.0,72,-99.99,,,-99.99,142.0,meteohub,2013-01-20 18:40:00,
2013-01-20 13:45:00,46.4,37.6,29.43,NE,36,1.0,12.0,71,-99.99,,,-99.99,172.0,meteohub,2013-01-20 18:45:00,
2013-01-20 13:50:00,46.4,37.6,29.44,SE,134,3.0,12.0,71,-99.99,,,-99.99,155.0,meteohub,2013-01-20 18:50:00,
2013-01-20 13:55:00,46.4,37.9,29.44,WSW,252,3.0,14.0,72,-99.99,,,-99.99,156.0,meteohub,2013-01-20 18:55:00,
2013-01-20 14:00:00,46.4,37.9,29.44,SSE,165,2.0,14.0,72,-99.99,,,-99.99,146.0,meteohub,2013-01-20 19:00:00,
2013-01-20 14:05:00,46.2,38.1,29.44,WSW,239,7.0,12.0,73,-99.99,,,-99.99,130.0,meteohub,2013-01-20 19:05:00,
2013-01-20 14:10:00,46.2,38.1,29.44,South,183,3.0,8.0,73,-99.99,,,-99.99,120.0,meteohub,2013-01-20 19:10:00,
2013-01-20 14:15:00,46.0,38.3,29.44,East,96,6.0,8.0,74,-99.99,,,-99.99,105.0,meteohub,2013-01-20 19:15:00,
2013-01-20 14:20:00,45.9,38.1,29.44,WSW,240,0.0,9.0,74,-99.99,,,-99.99,84.0,meteohub,2013-01-20 19:20:00,
2013-01-20 14:25:00,45.9,38.1,29.44,West,259,1.0,10.0,74,-99.99,,,-99.99,70.0,meteohub,2013-01-20 19:25:00,
2013-01-20 14:30:00,45.9,38.3,29.45,WSW,246,4.0,10.0,75,-99.99,,,-99.99,70.0,meteohub,2013-01-20 19:30:00,
2013-01-20 14:35:00,45.7,37.9,29.45,SW,220,0.0,7.0,74,-99.99,,,-99.99,47.0,meteohub,2013-01-20 19:35:00,
2013-01-20 14:40:00,45.7,37.6,29.45,SW,220,2.0,7.0,73,-99.99,,,-99.99,44.0,meteohub,2013-01-20 19:40:00,
2013-01-20 14:45:00,45.5,37.0,29.46,WSW,238,3.0,7.0,72,-99.99,,,-99.99,28.0,meteohub,2013-01-20 19:45:00,
2013-01-20 14:50:00,45.3,36.1,29.46,SW,223,4.0,9.0,70,-99.99,,,-99.99,26.0,meteohub,2013-01-20 19:50:00,
2013-01-20 14:55:00,45.5,35.2,29.45,NW,325,1.0,10.0,67,-99.99,,,-99.99,49.0,meteohub,2013-01-20 19:55:00,
2013-01-20 15:00:00,45.5,34.9,29.45,SW,230,4.0,10.0,66,-99.99,,,-99.99,62.0,meteohub,2013-01-20 20:00:00,
2013-01-20 15:05:00,45.5,34.9,29.45,WSW,239,1.0,11.0,66,-99.99,,,-99.99,72.0,meteohub,2013-01-20 20:05:00,
2013-01-20 15:10:00,45.3,34.7,29.45,SE,142,3.0,11.0,66,-99.99,,,-99.99,56.0,meteohub,2013-01-20 20:10:00,
2013-01-20 15:15:00,45.3,33.8,29.46,West,277,6.0,11.0,64,-99.99,,,-99.99,56.0,meteohub,2013-01-20 20:15:00,
2013-01-20 15:20:00,45.1,33.3,29.46,SW,234,7.0,10.0,63,-99.99,,,-99.99,54.0,meteohub,2013-01-20 20:20:00,
2013-01-20 15:25:00,45.1,32.9,29.46,SSW,203,2.0,10.0,62,-99.99,,,-99.99,47.0,meteohub,2013-01-20 20:25:00,
2013-01-20 15:30:00,45.1,32.5,29.46,NW,324,3.0,10.0,61,-99.99,,,-99.99,40.0,meteohub,2013-01-20 20:30:00,
2013-01-20 15:35:00,44.8,32.5,29.47,SSW,213,5.0,10.0,62,-99.99,,,-99.99,37.0,meteohub,2013-01-20 20:35:00,
2013-01-20 15:40:00,44.4,33.1,29.47,WSW,238,7.0,10.0,64,-99.99,,,-99.99,33.0,meteohub,2013-01-20 20:40:00,
2013-01-20 15:45:00,44.4,31.5,29.47,South,189,3.0,9.0,60,-99.99,,,-99.99,28.0,meteohub,2013-01-20 20:45:00,
2013-01-20 15:50:00,44.4,31.8,29.47,SW,217,5.0,10.0,61,-99.99,,,-99.99,23.0,meteohub,2013-01-20 20:50:00,
2013-01-20 15:55:00,44.2,32.0,29.47,SW,235,5.0,10.0,62,-99.99,,,-99.99,19.0,meteohub,2013-01-20 20:55:00,
2013-01-20 16:01:00,44.1,31.8,29.48,WSW,250,3.0,10.0,62,-99.99,,,-99.99,18.0,meteohub,2013-01-20 21:01:00,
2013-01-20 16:06:00,43.9,32.2,29.48,SW,232,5.0,9.0,63,-99.99,,,-99.99,12.0,meteohub,2013-01-20 21:06:00,
2013-01-20 16:11:00,43.5,32.5,29.48,WSW,242,3.0,10.0,65,-99.99,,,-99.99,12.0,meteohub,2013-01-20 21:11:00,
2013-01-20 16:16:00,43.3,32.0,29.48,SSW,201,4.0,10.0,64,-99.99,,,-99.99,12.0,meteohub,2013-01-20 21:16:00,
2013-01-20 16:21:00,43.2,31.8,29.49,WSW,243,4.0,10.0,64,-99.99,,,-99.99,9.0,meteohub,2013-01-20 21:21:00,
2013-01-20 16:27:00,43.2,31.8,29.49,WSW,257,3.0,10.0,64,-99.99,,,-99.99,5.0,meteohub,2013-01-20 21:27:00,
2013-01-20 16:32:00,43.0,31.6,29.49,WSW,240,4.0,10.0,64,-99.99,,,-99.99,5.0,meteohub,2013-01-20 21:32:00,
2013-01-20 16:37:00,43.0,31.6,29.50,SW,226,4.0,10.0,64,-99.99,,,-99.99,0.0,meteohub,2013-01-20 21:37:00,
2013-01-20 16:42:00,42.8,31.8,29.51,SW,233,4.0,9.0,65,-99.99,,,-99.99,0.0,meteohub,2013-01-20 21:42:00,
2013-01-20 16:47:00,42.4,31.5,29.51,West,259,5.0,8.0,65,-99.99,,,-99.99,0.0,meteohub,2013-01-20 21:47:00,
2013-01-20 16:53:00,42.4,32.2,29.51,West,263,5.0,8.0,67,-99.99,,,-99.99,0.0,meteohub,2013-01-20 21:53:00,
2013-01-20 16:58:00,42.4,31.8,29.52,WSW,252,4.0,8.0,66,-99.99,,,-99.99,0.0,meteohub,2013-01-20 21:58:00,
2013-01-20 17:03:00,42.1,30.7,29.52,WSW,250,4.0,8.0,64,-99.99,,,-99.99,0.0,meteohub,2013-01-20 22:03:00,
2013-01-20 17:08:00,42.1,30.4,29.52,WSW,245,2.0,10.0,63,-99.99,,,-99.99,0.0,meteohub,2013-01-20 22:08:00,
2013-01-20 17:13:00,41.9,30.2,29.52,WSW,246,4.0,10.0,63,-99.99,,,-99.99,0.0,meteohub,2013-01-20 22:13:00,
2013-01-20 17:18:00,41.7,30.4,29.53,WSW,241,3.0,9.0,64,-99.99,,,-99.99,0.0,meteohub,2013-01-20 22:18:00,
2013-01-20 17:23:00,41.4,30.0,29.53,West,262,4.0,9.0,64,-99.99,,,-99.99,0.0,meteohub,2013-01-20 22:23:00,
2013-01-20 17:29:00,41.4,30.9,29.53,WSW,245,2.0,8.0,66,-99.99,,,-99.99,0.0,meteohub,2013-01-20 22:29:00,
2013-01-20 17:34:00,41.2,30.7,29.54,WSW,254,2.0,7.0,66,-99.99,,,-99.99,0.0,meteohub,2013-01-20 22:34:00,
2013-01-20 17:39:00,40.8,30.4,29.54,WSW,237,1.0,5.0,66,-99.99,,,-99.99,0.0,meteohub,2013-01-20 22:39:00,
2013-01-20 17:44:00,40.8,30.4,29.54,SW,230,2.0,5.0,66,-99.99,,,-99.99,0.0,meteohub,2013-01-20 22:44:00,
2013-01-20 17:49:00,40.8,30.0,29.54,WSW,250,3.0,4.0,65,-99.99,,,-99.99,0.0,meteohub,2013-01-20 22:49:00,
2013-01-20 17:54:00,40.8,30.0,29.55,WSW,250,2.0,5.0,65,-99.99,,,-99.99,0.0,meteohub,2013-01-20 22:54:00,
2013-01-20 17:59:00,40.6,29.8,29.55,WSW,248,3.0,5.0,65,-99.99,,,-99.99,0.0,meteohub,2013-01-20 22:59:00,
2013-01-20 18:04:00,40.6,29.8,29.55,WSW,246,2.0,5.0,65,-99.99,,,-99.99,0.0,meteohub,2013-01-20 23:04:00,
2013-01-20 18:09:00,40.6,29.8,29.56,West,267,3.0,5.0,65,-99.99,,,-99.99,0.0,meteohub,2013-01-20 23:09:00,
2013-01-20 18:15:00,40.5,29.7,29.56,WSW,244,2.0,5.0,65,-99.99,,,-99.99,0.0,meteohub,2013-01-20 23:15:00,
2013-01-20 18:20:00,40.6,28.6,29.56,WSW,242,4.0,5.0,62,-99.99,,,-99.99,0.0,meteohub,2013-01-20 23:20:00,
2013-01-20 18:25:00,40.6,27.0,29.56,WSW,257,5.0,6.0,58,-99.99,,,-99.99,0.0,meteohub,2013-01-20 23:25:00,
2013-01-20 18:30:00,40.8,25.9,29.57,SW,232,4.0,10.0,55,-99.99,,,-99.99,0.0,meteohub,2013-01-20 23:30:00,
2013-01-20 18:35:00,40.6,24.4,29.57,SW,236,6.0,10.0,52,-99.99,,,-99.99,0.0,meteohub,2013-01-20 23:35:00,
2013-01-20 18:41:00,40.6,23.9,29.58,SW,236,4.0,13.0,51,-99.99,,,-99.99,0.0,meteohub,2013-01-20 23:41:00,
2013-01-20 18:47:00,40.6,22.5,29.58,WSW,248,6.0,13.0,48,-99.99,,,-99.99,0.0,meteohub,2013-01-20 23:47:00,
2013-01-20 18:52:00,40.3,22.6,29.58,West,259,9.0,12.0,49,-99.99,,,-99.99,0.0,meteohub,2013-01-20 23:52:00,
2013-01-20 18:57:00,40.3,22.6,29.59,West,261,6.0,11.0,49,-99.99,,,-99.99,0.0,meteohub,2013-01-20 23:57:00,
2013-01-20 19:02:00,40.1,21.9,29.59,SW,235,8.0,13.0,48,-99.99,,,-99.99,0.0,meteohub,2013-01-21 00:02:00,
2013-01-20 19:07:00,39.9,22.8,29.59,WSW,241,6.0,13.0,50,-99.99,,,-99.99,0.0,meteohub,2013-01-21 00:07:00,
2013-01-20 19:12:00,39.7,22.1,29.60,WSW,244,6.0,13.0,49,-99.99,,,-99.99,0.0,meteohub,2013-01-21 00:12:00,
2013-01-20 19:17:00,39.4,21.7,29.60,WSW,240,9.0,16.0,49,-99.99,,,-99.99,0.0,meteohub,2013-01-21 00:17:00,
2013-01-20 19:22:00,39.0,21.9,29.60,WSW,246,6.0,16.0,50,-99.99,,,-99.99,0.0,meteohub,2013-01-21 00:22:00,
2013-01-20 19:27:00,38.8,21.4,29.61,WSW,244,6.0,16.0,49,-99.99,,,-99.99,0.0,meteohub,2013-01-21 00:27:00,
2013-01-20 19:32:00,38.7,21.6,29.61,SW,225,8.0,16.0,50,-99.99,,,-99.99,0.0,meteohub,2013-01-21 00:32:00,
2013-01-20 19:38:00,38.5,21.9,29.61,WSW,238,7.0,16.0,51,-99.99,,,-99.99,0.0,meteohub,2013-01-21 00:38:00,
2013-01-20 19:43:00,38.1,22.1,29.62,West,262,11.0,21.0,52,-99.99,,,-99.99,0.0,meteohub,2013-01-21 00:43:00,
2013-01-20 19:48:00,37.6,22.5,29.62,SW,227,11.0,21.0,54,-99.99,,,-99.99,0.0,meteohub,2013-01-21 00:48:00,
2013-01-20 19:53:00,37.2,22.1,29.62,WSW,246,4.0,15.0,54,-99.99,,,-99.99,0.0,meteohub,2013-01-21 00:53:00,
2013-01-20 19:58:00,36.9,22.6,29.62,West,261,11.0,15.0,56,-99.99,,,-99.99,0.0,meteohub,2013-01-21 00:58:00,
2013-01-20 20:03:00,36.9,21.7,29.62,SW,232,6.0,14.0,54,-99.99,,,-99.99,0.0,meteohub,2013-01-21 01:03:00,
2013-01-20 20:08:00,36.5,21.0,29.63,WSW,246,6.0,15.0,53,-99.99,,,-99.99,0.0,meteohub,2013-01-21 01:08:00,
2013-01-20 20:14:00,36.3,22.1,29.63,WSW,247,5.0,15.0,56,-99.99,,,-99.99,0.0,meteohub,2013-01-21 01:14:00,
2013-01-20 20:19:00,36.1,21.0,29.64,WSW,252,7.0,11.0,54,-99.99,,,-99.99,0.0,meteohub,2013-01-21 01:19:00,
2013-01-20 20:24:00,36.0,22.6,29.64,WSW,254,7.0,12.0,58,-99.99,,,-99.99,0.0,meteohub,2013-01-21 01:24:00,
2013-01-20 20:29:00,35.8,21.2,29.64,SW,232,10.0,12.0,55,-99.99,,,-99.99,0.0,meteohub,2013-01-21 01:29:00,
2013-01-20 20:34:00,35.4,19.9,29.65,WSW,247,9.0,14.0,53,-99.99,,,-99.99,0.0,meteohub,2013-01-21 01:34:00,
2013-01-20 20:39:00,35.2,19.8,29.65,WSW,256,11.0,14.0,53,-99.99,,,-99.99,0.0,meteohub,2013-01-21 01:39:00,
2013-01-20 20:45:00,35.1,18.7,29.65,WSW,243,13.0,14.0,51,-99.99,,,-99.99,0.0,meteohub,2013-01-21 01:45:00,
2013-01-20 20:50:00,34.9,19.0,29.66,WSW,237,6.0,15.0,52,-99.99,,,-99.99,0.0,meteohub,2013-01-21 01:50:00,
2013-01-20 20:55:00,34.9,18.5,29.66,WSW,252,10.0,15.0,51,-99.99,,,-99.99,0.0,meteohub,2013-01-21 01:55:00,
2013-01-20 21:00:00,34.5,18.3,29.67,WSW,242,7.0,15.0,51,-99.99,,,-99.99,0.0,meteohub,2013-01-21 02:00:00,
2013-01-20 21:05:00,34.3,18.5,29.67,West,268,10.0,14.0,52,-99.99,,,-99.99,0.0,meteohub,2013-01-21 02:05:00,
2013-01-20 21:10:00,34.3,18.1,29.67,WSW,248,8.0,15.0,51,-99.99,,,-99.99,0.0,meteohub,2013-01-21 02:10:00,
2013-01-20 21:15:00,34.2,18.3,29.68,WSW,250,9.0,15.0,52,-99.99,,,-99.99,0.0,meteohub,2013-01-21 02:15:00,
2013-01-20 21:20:00,34.2,18.3,29.68,WSW,237,9.0,13.0,52,-99.99,,,-99.99,0.0,meteohub,2013-01-21 02:20:00,
2013-01-20 21:25:00,33.8,18.5,29.68,WSW,243,7.0,13.0,53,-99.99,,,-99.99,0.0,meteohub,2013-01-21 02:25:00,
2013-01-20 21:30:00,33.6,18.3,29.68,WSW,254,6.0,12.0,53,-99.99,,,-99.99,0.0,meteohub,2013-01-21 02:30:00,
2013-01-20 21:36:00,33.4,17.8,29.69,WSW,243,7.0,12.0,52,-99.99,,,-99.99,0.0,meteohub,2013-01-21 02:36:00,
2013-01-20 21:41:00,33.4,17.8,29.69,WSW,250,9.0,17.0,52,-99.99,,,-99.99,0.0,meteohub,2013-01-21 02:41:00,
2013-01-20 21:46:00,33.3,18.9,29.69,West,261,14.0,17.0,55,-99.99,,,-99.99,0.0,meteohub,2013-01-21 02:46:00,
2013-01-20 21:51:00,32.5,19.4,29.70,WSW,248,8.0,17.0,58,-99.99,,,-99.99,0.0,meteohub,2013-01-21 02:51:00,
2013-01-20 21:57:00,31.8,20.3,29.71,WSW,254,8.0,14.0,62,-99.99,,,-99.99,0.0,meteohub,2013-01-21 02:57:00,
2013-01-20 22:02:00,31.3,20.1,29.71,WSW,254,6.0,14.0,63,-99.99,,,-99.99,0.0,meteohub,2013-01-21 03:02:00,
2013-01-20 22:07:00,30.9,20.8,29.72,West,259,6.0,14.0,66,-99.99,,,-99.99,0.0,meteohub,2013-01-21 03:07:00,
2013-01-20 22:12:00,30.6,20.1,29.73,WSW,256,6.0,14.0,65,-99.99,,,-99.99,0.0,meteohub,2013-01-21 03:12:00,
2013-01-20 22:17:00,30.4,19.9,29.73,West,265,9.0,12.0,65,-99.99,,,-99.99,0.0,meteohub,2013-01-21 03:17:00,
2013-01-20 22:22:00,29.8,18.9,29.74,WSW,253,5.0,15.0,63,-99.99,,,-99.99,0.0,meteohub,2013-01-21 03:22:00,
2013-01-20 22:27:00,29.7,19.0,29.74,West,265,8.0,15.0,64,-99.99,,,-99.99,0.0,meteohub,2013-01-21 03:27:00,
2013-01-20 22:33:00,28.9,16.0,29.74,West,266,7.0,14.0,58,-99.99,,,-99.99,0.0,meteohub,2013-01-21 03:33:00,
2013-01-20 22:38:00,28.8,18.1,29.75,WSW,244,5.0,16.0,64,-99.99,,,-99.99,0.0,meteohub,2013-01-21 03:38:00,
2013-01-20 22:43:00,28.4,15.1,29.75,West,263,10.0,16.0,57,-99.99,,,-99.99,0.0,meteohub,2013-01-21 03:43:00,
2013-01-20 22:48:00,28.0,15.3,29.75,WSW,254,10.0,17.0,58,-99.99,,,-99.99,0.0,meteohub,2013-01-21 03:48:00,
2013-01-20 22:53:00,27.9,15.4,29.75,West,263,12.0,17.0,59,-99.99,,,-99.99,0.0,meteohub,2013-01-21 03:53:00,
2013-01-20 22:58:00,27.5,13.8,29.75,WSW,257,14.0,17.0,56,-99.99,,,-99.99,0.0,meteohub,2013-01-21 03:58:00,
2013-01-20 23:03:00,27.3,15.3,29.76,WSW,257,8.0,21.0,60,-99.99,,,-99.99,0.0,meteohub,2013-01-21 04:03:00,
2013-01-20 23:08:00,27.1,13.1,29.76,West,269,8.0,21.0,55,-99.99,,,-99.99,0.0,meteohub,2013-01-21 04:08:00,
2013-01-20 23:14:00,27.0,12.9,29.76,WSW,253,8.0,21.0,55,-99.99,,,-99.99,0.0,meteohub,2013-01-21 04:14:00,
2013-01-20 23:19:00,26.8,12.7,29.77,West,265,12.0,18.0,55,-99.99,,,-99.99,0.0,meteohub,2013-01-21 04:19:00,
2013-01-20 23:24:00,26.4,12.0,29.77,West,265,12.0,18.0,54,-99.99,,,-99.99,0.0,meteohub,2013-01-21 04:24:00,
2013-01-20 23:29:00,26.2,13.1,29.77,WSW,255,8.0,17.0,57,-99.99,,,-99.99,0.0,meteohub,2013-01-21 04:29:00,
2013-01-20 23:34:00,26.2,11.8,29.78,WSW,257,8.0,17.0,54,-99.99,,,-99.99,0.0,meteohub,2013-01-21 04:34:00,
2013-01-20 23:39:00,26.2,13.1,29.78,WSW,248,5.0,19.0,57,-99.99,,,-99.99,0.0,meteohub,2013-01-21 04:39:00,
2013-01-20 23:44:00,26.1,12.6,29.78,WSW,239,10.0,19.0,56,-99.99,,,-99.99,0.0,meteohub,2013-01-21 04:44:00,
2013-01-20 23:49:00,25.9,12.4,29.79,WSW,239,15.0,19.0,56,-99.99,,,-99.99,0.0,meteohub,2013-01-21 04:49:00,
2013-01-20 23:55:00,25.5,10.8,29.78,WSW,257,6.0,16.0,53,-99.99,,,-99.99,0.0,meteohub,2013-01-21 04:55:00,